This is the latest recevied weather packets stored in our database for station/object S54MI-13. If no packets are shown the sender has not sent any weather packets the latest 10 day(s).
| Time | Temp. | Humidity | Pressure | Rain* | Wind** | Luminosity | Snow |
|---|---|---|---|---|---|---|---|
| 1777901561 | 25.56° C | 29% | - | - | - | 862 W/m² | - |
| 1777898661 | 25.56° C | 31% | - | - | - | 869 W/m² | - |
| 1777897221 | 25° C | 31% | - | - | - | 869 W/m² | - |
| 1777891480 | 24.44° C | 39% | - | - | - | 895 W/m² | - |
| 1777890735 | 24.44° C | 39% | - | - | - | 895 W/m² | - |
| 1777881380 | 22.78° C | 40% | - | - | - | 530 W/m² | - |
| 1777880660 | 22.22° C | 40% | - | - | - | 510 W/m² | - |
| 1777878500 | 19.44° C | 45% | - | - | - | 440 W/m² | - |
| 1777869859 | 13.89° C | 43% | - | - | - | 6 W/m² | - |
| 1777869139 | 13.33° C | 43% | - | - | - | 6 W/m² | - |
| 1777855458 | 13.89° C | 42% | - | - | - | 0 W/m² | - |
| 1777854019 | 13.89° C | 41% | - | - | - | 0 W/m² | - |
| 1777836018 | 16.67° C | 42% | - | - | - | 0 W/m² | - |
| 1777835298 | 16.67° C | 42% | - | - | - | 0 W/m² | - |
| 1777833857 | 16.67° C | 42% | - | - | - | 7 W/m² | - |
| 1777828837 | 20.56° C | 39% | - | - | - | 132 W/m² | - |
| 1777814436 | 22.78° C | 36% | - | - | - | 794 W/m² | - |
| 1777800736 | 23.33° C | 38% | - | - | - | 816 W/m² | - |
| 1777796416 | 21.67° C | 48% | - | - | - | 683 W/m² | - |
| 1777790656 | 16.67° C | 57% | - | - | - | 323 W/m² | - |
| 1777789215 | 15° C | 57% | - | - | - | 323 W/m² | - |
| 1777788495 | 14.44° C | 57% | - | - | - | 225 W/m² | - |
| 1777784175 | 12.78° C | 54% | - | - | - | 57 W/m² | - |
| 1777779156 | 12.22° C | 52% | - | - | - | 0 W/m² | - |
| 1777776257 | 12.78° C | 50% | - | - | - | 0 W/m² | - |
* Rain since midnight (hover to see other rain measurements)
** Current wind speed in m/s (hover to see current wind gust speed)